Anderson, SC

11:23 PM EDT on August 30, 2016 (GMT -0400)
Anderson Regional

Weather History for KAND - February, 2012

Change the Weather History Date:

Saturday, February 25, 2012

  Actual Average Record
Temperature  
Mean Temperature 46 °F -  
Max Temperature 55 °F 59 °F 76 °F (1981)
Min Temperature 35 °F 36 °F 11 °F (1967)
Degree Days  
Heating Degree Days 19    
Moisture  
Dew Point 19 °F    
Average Humidity 38    
Maximum Humidity 56    
Minimum Humidity 22    
Precipitation  
Precipitation 0.00 in - - ()
Sea Level Pressure  
Sea Level Pressure 30.17 in    
Wind  
Wind Speed 11 mph (West)    
Max Wind Speed 23 mph    
Max Gust Speed 33 mph    
Visibility 10 miles    
Events      
Averages and records for this station are not official NWS values.
T = Trace of Precipitation, MM = Missing Value Source: NWS Daily Summary

Daily Weather History Graph

Daily Weather History Graph

Search for Another Location

Airport or City:

Trip Planner

Search our weather history database for the weather conditions in past years. The results will help you decide how hot, cold, wet, or windy it might be!

Date:

Astronomy

Feb. 25, 2012 Rise Set
Actual Time 7:05 AM EST 6:22 PM EST
Civil Twilight 6:40 AM EST 6:48 PM EST
Nautical Twilight 6:10 AM EST 7:17 PM EST
Astronomical Twilight 5:41 AM EST 7:46 PM EST
Moon 8:40 AM EST (2/25) 10:09 PM EST (2/25)
Length of Visible Light 12h 08m
Length of Day
11h 17m
Waxing Crescent, 13% of the Moon is Illuminated
Feb 25
Waxing Crescent
Feb 29
First Quarter
Mar 8
Full
Mar 14
Last Quarter
Mar 22
New

Hourly Weather History & Observations

Time (EST) Temp. Windchill Dew Point Humidity Pressure Visibility Wind Dir Wind Speed Gust Speed Precip Events Conditions
12:56 AM 42.1 °F 37.1 °F 23.0 °F 47% 30.04 in 10.0 mi West 8.1 mph - N/A   Clear
1:56 AM 41.0 °F 35.2 °F 24.1 °F 51% 30.06 in 10.0 mi West 9.2 mph - N/A   Clear
2:56 AM 39.9 °F 33.9 °F 25.0 °F 55% 30.08 in 10.0 mi West 9.2 mph - N/A   Clear
3:56 AM 39.9 °F 33.4 °F 21.0 °F 47% 30.09 in 10.0 mi WNW 10.4 mph - N/A   Clear
4:56 AM 37.9 °F 32.1 °F 19.9 °F 48% 30.11 in 10.0 mi West 8.1 mph - N/A   Clear
5:56 AM 37.9 °F 29.6 °F 21.9 °F 53% 30.14 in 10.0 mi West 13.8 mph - N/A   Clear
6:56 AM 37.9 °F 30.0 °F 21.0 °F 51% 30.16 in 10.0 mi West 12.7 mph - N/A   Clear
7:56 AM 39.9 °F 32.9 °F 21.0 °F 47% 30.19 in 10.0 mi West 11.5 mph - N/A   Clear
8:56 AM 41.0 °F 35.8 °F 21.9 °F 47% 30.21 in 10.0 mi West 8.1 mph - N/A   Clear
9:56 AM 44.1 °F 36.8 °F 21.0 °F 40% 30.21 in 10.0 mi West 16.1 mph - N/A   Clear
10:56 AM 46.4 °F 40.1 °F 19.4 °F 34% 30.20 in 10.0 mi West 15.0 mph 20.7 mph N/A   Clear
11:56 AM 50.0 °F - 19.0 °F 29% 30.19 in 10.0 mi WSW 18.4 mph 27.6 mph N/A   Clear
12:56 PM 53.1 °F - 17.1 °F 24% 30.15 in 10.0 mi West 12.7 mph 20.7 mph N/A   Clear
1:56 PM 54.0 °F - 15.1 °F 22% 30.14 in 10.0 mi West 23.0 mph 33.4 mph N/A   Clear
2:56 PM 54.0 °F - 16.0 °F 22% 30.14 in 10.0 mi West 18.4 mph 28.8 mph N/A   Clear
3:56 PM 55.4 °F - 17.6 °F 23% 30.15 in 10.0 mi West 23.0 mph 28.8 mph N/A   Clear
4:56 PM 55.0 °F - 17.1 °F 23% 30.15 in 10.0 mi WNW 11.5 mph - N/A   Clear
5:56 PM 53.6 °F - 15.8 °F 22% 30.18 in 10.0 mi West 9.2 mph 20.7 mph N/A   Clear
6:56 PM 48.0 °F - 17.1 °F 29% 30.21 in 10.0 mi WNW 5.8 mph - N/A   Clear
7:56 PM 46.4 °F 42.9 °F 17.6 °F 32% 30.23 in 10.0 mi NW 6.9 mph - N/A   Clear
8:56 PM 45.0 °F 42.6 °F 17.1 °F 33% 30.26 in 10.0 mi NW 4.6 mph - N/A   Clear
9:56 PM 41.0 °F 38.0 °F 18.0 °F 40% 30.28 in 10.0 mi North 4.6 mph - N/A   Clear
10:56 PM 39.0 °F - 18.0 °F 43% 30.30 in 10.0 mi Calm Calm - N/A   Clear
11:56 PM 35.6 °F - 21.2 °F 56% 30.30 in 10.0 mi Calm Calm - N/A   Clear